Weather reports worldwide

Advertisment
Portland Intl OR, United States of America (72698): temperature & dewpoint: 07.12.2019 18:00:00 - 13.12.2019 18:00:00 (PST)Portland Intl OR, United States of America (72698): wind speed: 07.12.2019 18:00:00 - 13.12.2019 18:00:00 (PST)Portland Intl OR, United States of America (72698): wind direction: 07.12.2019 18:00:00 - 13.12.2019 18:00:00 (PST)Portland Intl OR, United States of America (72698): reduced air pressure: 07.12.2019 18:00:00 - 13.12.2019 18:00:00 (PST)Portland Intl OR, United States of America (72698): visibility: 07.12.2019 18:00:00 - 13.12.2019 18:00:00 (PST)Portland Intl OR, United States of America (72698): precipitation: 07.12.2019 18:00:00 - 13.12.2019 18:00:00 (PST)
Date & Time tt [°C] td [°C] ff [km/h] ff [kn] dd ppp [hPa] vv [km] rr [mm]
13.12.2019 18:00:00 7,2 5,6 5 3 NNW 1017,4 16 -
13.12.2019 17:00:00 7,2 4,4 5 3 W 1017,7 16 -
13.12.2019 16:00:00 9,4 5,6 0 0 N 1017,6 16 0,0
13.12.2019 15:00:00 8,9 6,1 5 3 NW 1017,8 16 -
13.12.2019 14:00:00 8,9 6,1 8 4 NW 1018,2 16 -
13.12.2019 13:00:00 8,9 6,1 0 0 N 1018,8 16 -
13.12.2019 12:00:00 8,3 6,1 0 0 N 1019,2 16 -
13.12.2019 11:00:00 7,8 6,1 0 0 N 1020,0 13 -
13.12.2019 10:00:00 7,2 5,6 8 4 WNW 1020,6 15 0,0
13.12.2019 09:00:00 5,6 4,4 0 0 N 1020,4 13 -
13.12.2019 08:00:00 5,0 3,9 0 0 N 1020,6 13 -
13.12.2019 07:00:00 5,0 3,9 0 0 N 1020,6 16 -
13.12.2019 06:00:00 6,7 5,0 0 0 N 1020,8 16 -
13.12.2019 05:00:00 7,2 5,0 5 3 - 1021,2 16 -
13.12.2019 04:00:00 7,8 5,6 9 5 - 1021,6 10 -
13.12.2019 03:00:00 6,7 5,0 8 4 ESE 1022,2 16 -
13.12.2019 02:00:00 7,2 5,0 9 5 E 1022,1 16 -
13.12.2019 01:00:00 8,3 5,0 13 7 SSW 1022,2 16 -
13.12.2019 00:00:00 8,3 6,1 13 7 SSW 1021,8 16 0,0
12.12.2019 23:00:00 7,8 5,6 0 0 N 1021,2 16 -
12.12.2019 22:00:00 7,8 6,1 8 4 SW 1020,9 16 0,5
12.12.2019 21:00:00 8,9 5,6 15 8 WSW 1020,6 13 0,5
12.12.2019 20:00:00 9,4 5,6 15 8 SW 1019,7 16 -
12.12.2019 19:00:00 10,0 6,1 15 8 S 1018,9 16 -
12.12.2019 18:00:00 10,0 5,6 13 7 SW 1018,7 16 -
12.12.2019 17:00:00 10,6 5,6 11 6 SSW 1018,1 16 0,0
12.12.2019 16:00:00 11,7 6,1 15 8 WSW 1017,5 16 0,0
12.12.2019 15:00:00 11,7 6,7 18 10 SW 1016,4 16 -
12.12.2019 14:00:00 10,6 8,3 11 6 SE 1015,6 16 1,3
12.12.2019 13:00:00 9,4 7,8 13 7 NW 1015,3 6 0,0
12.12.2019 12:00:00 9,4 7,8 15 8 NW 1014,5 4,0 0,8
12.12.2019 11:00:00 11,1 8,3 0 0 N 1014,2 16 0,5
12.12.2019 10:00:00 10,6 8,9 13 7 SSE 1014,6 16 1,3
12.12.2019 09:00:00 8,3 6,7 15 8 ESE 1015,1 16 -
12.12.2019 08:00:00 8,3 6,7 13 7 E 1015,4 16 0,0
12.12.2019 07:00:00 10,0 7,8 13 7 S 1016,0 16 0,0
12.12.2019 06:00:00 10,0 8,3 15 8 S 1015,9 16 0,0
12.12.2019 05:00:00 8,3 6,7 5 3 ESE 1015,8 16 0,0
12.12.2019 04:00:00 8,3 6,7 8 4 E 1015,8 16 0,0
12.12.2019 03:00:00 10,0 7,8 13 7 S 1015,6 16 -
12.12.2019 02:00:00 10,0 7,8 18 10 SSW 1014,7 16 -
12.12.2019 01:00:00 10,0 7,8 15 8 SSW 1014,1 16 -
12.12.2019 00:00:00 7,8 6,7 9 5 ESE 1013,5 16 -
11.12.2019 23:00:00 7,8 7,2 18 10 E 1013,0 16 -
11.12.2019 22:00:00 7,2 6,7 16 9 ESE 1012,1 16 1,8
11.12.2019 21:00:00 6,7 5,0 15 8 ESE 1011,5 6 1,0
11.12.2019 20:00:00 6,7 5,0 21 11 ESE 1011,5 16 0,3
11.12.2019 19:00:00 6,7 5,0 28 15 ESE 1011,8 16 0,0
11.12.2019 18:00:00 6,7 6,1 22 12 SE 1012,6 16 0,0
11.12.2019 17:00:00 6,7 6,1 22 12 ESE 1013,4 16 0,5
11.12.2019 16:00:00 7,2 5,0 18 10 ESE 1014,2 16 0,3
11.12.2019 15:00:00 7,8 7,2 15 8 SE 1014,8 16 0,5
11.12.2019 14:00:00 7,2 6,1 21 11 SE 1015,6 16 0,8
11.12.2019 13:00:00 7,2 5,0 16 9 ESE 1016,3 16 0,3
11.12.2019 12:00:00 8,3 5,0 21 11 ESE 1017,1 10 -
11.12.2019 11:00:00 7,8 5,0 13 7 ESE 1017,4 16 -
11.12.2019 10:00:00 7,2 4,4 22 12 ESE 1017,4 16 -
11.12.2019 09:00:00 6,1 3,9 16 9 ESE 1017,6 16 -
11.12.2019 08:00:00 5,6 3,9 21 11 ESE 1018,1 16 0,0
11.12.2019 07:00:00 5,6 3,9 16 9 ESE 1018,3 16 0,3
11.12.2019 06:00:00 5,6 3,9 15 8 ESE 1018,7 16 0,3
11.12.2019 05:00:00 5,6 3,9 13 7 ESE 1019,0 16 0,0
11.12.2019 04:00:00 5,6 3,9 13 7 ESE 1019,3 16 0,0
11.12.2019 03:00:00 5,6 3,9 15 8 ESE 1019,2 16 0,0
11.12.2019 02:00:00 5,6 3,9 13 7 ESE 1019,1 16 0,0
11.12.2019 01:00:00 5,6 3,9 15 8 ESE 1019,7 16 0,0
11.12.2019 00:00:00 5,6 3,9 18 10 ESE 1019,6 15 0,3
10.12.2019 23:00:00 5,6 3,9 15 8 SE 1020,5 10 0,3
10.12.2019 22:00:00 5,6 4,4 16 9 ESE 1020,4 11 0,3
10.12.2019 21:00:00 5,6 4,4 16 9 ESE 1020,3 16 0,3
10.12.2019 20:00:00 5,6 5,0 16 9 ESE 1020,5 16 0,5
10.12.2019 19:00:00 5,6 4,4 16 9 ESE 1020,9 13 1,0
10.12.2019 18:00:00 5,6 3,9 16 9 ESE 1020,9 16 0,5
10.12.2019 17:00:00 5,6 3,3 15 8 ESE 1021,1 16 1,3
10.12.2019 16:00:00 5,6 3,3 16 9 SE 1021,3 8 1,3
10.12.2019 15:00:00 6,1 3,9 11 6 SSE 1021,4 10 1,8
10.12.2019 14:00:00 6,1 3,9 18 10 E 1021,7 6 0,8
10.12.2019 13:00:00 6,1 3,3 13 7 ESE 1022,2 8 -
10.12.2019 12:00:00 6,7 2,8 9 5 ESE 1022,1 16 -
10.12.2019 11:00:00 7,2 2,2 0 0 N 1022,3 16 -
10.12.2019 10:00:00 5,6 2,2 0 0 N 1022,9 16 0,0
10.12.2019 09:00:00 5,6 1,7 11 6 ESE 1022,6 16 -
10.12.2019 08:00:00 3,9 0,6 9 5 ESE 1022,8 16 -
10.12.2019 07:00:00 3,3 1,1 13 7 ESE 1023,0 16 -
10.12.2019 06:00:00 5,6 2,2 18 10 ESE 1022,9 16 -
10.12.2019 05:00:00 3,9 2,2 9 5 S 1023,0 16 -
10.12.2019 04:00:00 5,0 2,2 21 11 SE 1022,9 16 0,0
10.12.2019 03:00:00 5,6 2,2 21 11 SE 1023,1 16 -
10.12.2019 02:00:00 5,0 2,2 15 8 S 1023,2 16 -
10.12.2019 01:00:00 5,0 2,2 11 6 SE 1022,2 16 -
10.12.2019 00:00:00 5,0 2,2 13 7 SE 1022,8 16 -
09.12.2019 23:00:00 5,0 2,2 15 8 SSE 1023,0 16 -
09.12.2019 22:00:00 3,9 2,2 0 0 N 1022,9 16 0,0
09.12.2019 21:00:00 4,4 2,2 8 4 SE 1023,0 16 -
09.12.2019 20:00:00 5,6 2,8 9 5 ESE 1022,5 16 -
09.12.2019 19:00:00 5,6 3,9 0 0 N 1022,4 16 -
09.12.2019 18:00:00 5,6 3,9 5 3 WSW 1022,4 16 -
09.12.2019 17:00:00 6,7 3,9 0 0 N 1022,5 16 -
09.12.2019 16:00:00 7,8 5,0 15 8 W 1022,3 16 0,0
09.12.2019 15:00:00 8,9 5,0 9 5 WNW 1022,5 16 -
09.12.2019 14:00:00 8,9 5,0 11 6 WNW 1022,6 16 -
09.12.2019 13:00:00 8,9 5,0 0 0 N 1023,1 16 -
09.12.2019 12:00:00 7,8 5,0 0 0 N 1024,1 16 -
09.12.2019 11:00:00 7,2 5,0 5 3 NNE 1024,4 15 -
09.12.2019 10:00:00 7,8 4,4 5 3 E 1024,7 16 0,0
09.12.2019 09:00:00 6,7 4,4 13 7 E 1024,4 16 -
09.12.2019 08:00:00 6,7 4,4 13 7 ESE 1024,2 16 -
09.12.2019 07:00:00 6,7 5,0 8 4 ESE 1023,9 16 -
09.12.2019 06:00:00 6,7 5,0 8 4 ESE 1023,6 11 -
09.12.2019 05:00:00 7,2 5,6 9 5 ESE 1023,3 1,6 -
09.12.2019 04:00:00 7,8 6,1 8 4 E 1023,4 16 0,0
09.12.2019 03:00:00 7,8 6,7 5 3 ESE 1023,3 6 -
09.12.2019 02:00:00 8,3 7,2 5 3 E 1023,6 6 -
09.12.2019 01:00:00 8,9 7,8 0 0 N 1023,9 10 -
09.12.2019 00:00:00 8,9 7,8 0 0 N 1024,1 8 -
08.12.2019 23:00:00 8,9 7,8 0 0 N 1023,2 3,2 -
08.12.2019 22:00:00 8,9 7,8 0 0 N 1023,1 8 0,0
08.12.2019 21:00:00 8,9 7,8 0 0 N 1022,6 8 -
08.12.2019 20:00:00 9,4 7,8 0 0 N 1022,0 10 -
08.12.2019 19:00:00 9,4 7,8 0 0 N 1022,0 11 -
08.12.2019 18:00:00 9,4 7,8 0 0 N 1022,1 13 -
08.12.2019 17:00:00 10,0 8,3 0 0 N 1021,7 15 -
08.12.2019 16:00:00 10,6 8,3 0 0 N 1021,3 16 0,0
08.12.2019 15:00:00 11,1 8,3 0 0 N 1020,7 16 -
08.12.2019 14:00:00 11,1 7,8 0 0 N 1019,9 16 -
08.12.2019 13:00:00 10,6 7,8 5 3 N 1019,8 13 -
08.12.2019 12:00:00 10,6 8,3 8 4 ENE 1019,5 4,8 -
08.12.2019 11:00:00 10,0 8,3 5 3 ESE 1019,6 4,8 -
08.12.2019 10:00:00 8,9 7,2 15 8 E 1019,0 3,2 0,0
08.12.2019 09:00:00 8,3 7,2 9 5 E 1018,4 3,2 0,0
08.12.2019 08:00:00 7,8 6,7 11 6 E 1017,5 3,2 0,0
08.12.2019 07:00:00 7,8 6,7 8 4 E 1016,7 11 -
08.12.2019 06:00:00 7,8 6,7 0 0 N 1015,9 15 -
08.12.2019 05:00:00 7,8 6,7 0 0 N 1015,1 13 -
08.12.2019 04:00:00 7,8 6,1 5 3 E 1014,3 15 0,0
08.12.2019 03:00:00 7,8 6,7 0 0 N 1013,5 16 -
08.12.2019 02:00:00 7,8 6,1 0 0 N 1012,8 16 -
08.12.2019 01:00:00 7,2 6,1 5 3 ESE 1011,6 16 -
08.12.2019 00:00:00 7,2 6,1 8 4 E 1011,1 16 -
07.12.2019 23:00:00 7,8 6,1 8 4 E 1010,5 16 -
07.12.2019 22:00:00 7,8 6,1 0 0 N 1009,8 16 -
07.12.2019 21:00:00 7,8 6,1 0 0 N 1009,2 16 -
07.12.2019 20:00:00 7,2 6,1 0 0 N 1008,5 16 -
07.12.2019 19:00:00 7,2 6,1 5 3 ESE 1008,0 16 -
07.12.2019 18:00:00 7,2 6,1 0 0 N 1007,6 8 0,3

tt = temperature
td = dewpoint
ff = wind speed
dd = wind direction
ppp = reduced air pressure
vv = visibility
rr = precipitation

Next stations